sat.trackr.live / text

‹ back to catalog

NUSAT-33 (ALBANIA-2)

NORAD 55047 · 2023-001AQ

PAYLOAD ACTIVE UNKNOWN

§ Identity

Operator
Country
ARGN
Launch date
2023-01-03
Launch site
AFETR
Launch vehicle
Mass (kg)
RCS (m²)

External: N2YO · Heavens-Above · Gunter

§ Orbital elements

Epoch: 2026-05-25T03:39:12.877632Z

Period
94.28 min
Inclination
97.3085°
Eccentricity
0.0008285
Mean motion
15.27320837 rev/d
Perigee alt
478.1 km
Apogee alt
489.5 km
Semi-major
6,862.0 km
B*
3.2448e-4
RAAN
206.5214°
Arg perigee
123.0421°
Mean anomaly
237.1615°
Rev number
18,879

§ Raw data

NUSAT-33 (ALBANIA-2)1 55047U 23001AQ  26145.15223238  .00008620  00000+0  32448-3 0  99902 55047  97.3085 206.5214 0008285 123.0421 237.1615 15.27320837188797

JSON: /api/v1/satellites/55047 · /tle

For live sub-satellite position, see the globe view (requires WebGL).

§ Visibility from observer

Set your observer location to see the next 7 days of passes ≥ 10°. The values pass through the URL so the page stays shareable.

No JS? Fill the form by hand. The geolocation button needs JavaScript.